Change the Weather History Date:

Sunday, March 17, 2013

  Actual Average Record
Temperature  
Mean Temperature 54 °F -  
Max Temperature 60 °F 66 °F 71 °F (1999)
Min Temperature 48 °F 48 °F 41 °F (1998)
Degree Days  
Heating Degree Days 11    
Growing Degree Days 4 (Base 50)    
Moisture  
Dew Point 50 °F    
Average Humidity 82    
Maximum Humidity 94    
Minimum Humidity 64    
Precipitation  
Precipitation 0.00 in - - ()
Sea Level Pressure  
Sea Level Pressure 29.62 in    
Wind  
Wind Speed 2 mph ()    
Max Wind Speed 8 mph    
Max Gust Speed -    
Visibility 6.4 miles    
Events Rain    
Averages and records for this station are not official NWS values.
T = Trace of Precipitation, MM = Missing Value Source: Averaged Metar Reports

Daily Weather History Graph

Daily Weather History Graph

Search for Another Location

Airport or City:

Trip Planner

Search our weather history database for the weather conditions in past years. The results will help you decide how hot, cold, wet, or windy it might be!

Date:

Astronomy

Mar. 17, 2013 Rise Set
Actual Time 7:10 AM CET 7:11 PM CET
Civil Twilight 6:44 AM CET 7:37 PM CET
Nautical Twilight 6:13 AM CET 8:08 PM CET
Astronomical Twilight 5:42 AM CET 8:39 PM CET
Moon 10:16 AM CET (3/17) 12:01 AM CET (3/17)
Length of Visible Light 12h 53m
Length of Day
12h 00m
Waxing Crescent, 29% of the Moon is Illuminated
Mar 17
Waxing Crescent
Mar 19
First Quarter
Mar 27
Full
Apr 3
Last Quarter
Apr 10
New

Hourly Weather History & Observations

Time (CET) Temp. Dew Point Humidity Pressure Visibility Wind Dir Wind Speed Gust Speed Precip Events Conditions
12:00 AM 51.8 °F 46.4 °F 82% 29.86 in - WSW 3.5 mph - N/A   Clear
12:30 AM 51.8 °F 48.2 °F 88% 29.83 in - Calm Calm - N/A   Clear
1:00 AM 51 °F 45 °F 74% 29.83 in 7 mi NW 2.3 mph - -   Partly Cloudy
1:00 AM 51.8 °F 48.2 °F 88% 29.83 in - Variable 2.3 mph - N/A   Clear
2:00 AM 51.8 °F 46.4 °F 82% 29.80 in - Variable 1.2 mph - N/A   Clear
2:30 AM 50.0 °F 46.4 °F 87% 29.77 in - Variable 1.2 mph - N/A   Clear
3:00 AM 50.0 °F 46.4 °F 87% 29.77 in - Variable 2.3 mph - N/A   Clear
3:30 AM 48.2 °F 46.4 °F 93% 29.74 in - WNW 3.5 mph - N/A   Clear
4:00 AM 50.0 °F 46.4 °F 87% 29.74 in - Variable 2.3 mph - N/A   Clear
4:30 AM 51.8 °F 46.4 °F 82% 29.71 in - Variable 2.3 mph - N/A   Clear
5:00 AM 50.0 °F 46.4 °F 87% 29.71 in - Variable 1.2 mph - N/A   Clear
5:30 AM 51.8 °F 44.6 °F 76% 29.68 in - Variable 2.3 mph - N/A   Clear
6:00 AM 50.0 °F 46.4 °F 87% 29.68 in - WSW 3.5 mph - N/A   Clear
6:30 AM 48.2 °F 46.4 °F 93% 29.68 in - Variable 2.3 mph - N/A   Clear
7:00 AM 49 °F 43 °F 74% 29.68 in 7 mi West 2.3 mph - -   Mostly Cloudy
7:00 AM 50.0 °F 46.4 °F 87% 29.65 in - Variable 1.2 mph - N/A   Clear
7:30 AM 50.0 °F 46.4 °F 87% 29.65 in - WNW 3.5 mph - N/A   Clear
8:00 AM 51.8 °F 46.4 °F 82% 29.62 in - Calm Calm - N/A   Clear
8:30 AM 51.8 °F 46.4 °F 82% 29.65 in - Variable 2.3 mph - N/A   Clear
9:00 AM 51.8 °F 46.4 °F 82% 29.62 in - Calm Calm - N/A   Clear
9:30 AM 53.6 °F 48.2 °F 82% 29.65 in - Variable 1.2 mph - N/A   Clear
10:00 AM 53.6 °F 48.2 °F 82% 29.65 in 6.2 mi SSW 3.5 mph - N/A   Partly Cloudy
10:30 AM 53.6 °F 48.2 °F 82% 29.65 in 6.2 mi SW 4.6 mph - N/A   Partly Cloudy
11:00 AM 53.6 °F 50.0 °F 88% 29.65 in 6.2 mi Variable 2.3 mph - N/A   Scattered Clouds
11:30 AM 53.6 °F 50.0 °F 88% 29.65 in 6.2 mi SSW 3.5 mph - N/A   Scattered Clouds
12:00 PM 53.6 °F 50.0 °F 88% 29.65 in 6.2 mi South 3.5 mph - N/A Rain Light Rain
12:30 PM 55.4 °F 50.0 °F 82% 29.62 in 6.2 mi Calm Calm - N/A   Scattered Clouds
1:00 PM 55 °F 46 °F 64% 29.63 in 9 mi NNW 1.2 mph - -   Partly Cloudy
1:00 PM 55.4 °F 50.0 °F 82% 29.62 in 6.2 mi Variable 1.2 mph - N/A   Scattered Clouds
1:30 PM 57.2 °F 48.2 °F 72% 29.59 in 6.2 mi Variable 1.2 mph - N/A   Partly Cloudy
2:00 PM 57.2 °F 48.2 °F 72% 29.56 in 6.2 mi Calm Calm - N/A   Partly Cloudy
2:30 PM 59.0 °F 48.2 °F 67% 29.53 in 6.2 mi Calm Calm - N/A   Partly Cloudy
3:00 PM 59.0 °F 50.0 °F 72% 29.53 in 6.2 mi Variable 1.2 mph - N/A   Partly Cloudy
3:30 PM 60.8 °F 50.0 °F 68% 29.50 in 6.2 mi Variable 1.2 mph - N/A   Partly Cloudy
4:00 PM 60.8 °F 50.0 °F 68% 29.50 in 6.2 mi Variable 1.2 mph - N/A   Partly Cloudy
4:30 PM 60.8 °F 51.8 °F 72% 29.50 in 6.2 mi SSW 4.6 mph - N/A   Partly Cloudy
5:00 PM 60.8 °F 53.6 °F 77% 29.50 in 6.2 mi SW 3.5 mph - N/A   Partly Cloudy
5:30 PM 59.0 °F 53.6 °F 82% 29.50 in 6.2 mi South 3.5 mph - N/A   Partly Cloudy
6:00 PM 59.0 °F 53.6 °F 82% 29.50 in 6.2 mi NNW 4.6 mph - N/A   Partly Cloudy
6:30 PM 60.8 °F 53.6 °F 77% 29.50 in 6.2 mi West 3.5 mph - N/A   Partly Cloudy
7:00 PM 59 °F 50 °F 64% 29.52 in 9 mi SSE 3.5 mph - -   Scattered Clouds
7:00 PM 59.0 °F 53.6 °F 82% 29.50 in 6.2 mi Variable 2.3 mph - N/A   Partly Cloudy
7:30 PM 57.2 °F 53.6 °F 88% 29.50 in 6.2 mi Calm Calm - N/A   Partly Cloudy
8:00 PM 57.2 °F 53.6 °F 88% 29.50 in 6.2 mi Variable 2.3 mph - N/A   Partly Cloudy
8:30 PM 57.2 °F 55.4 °F 94% 29.53 in 4.3 mi West 8.1 mph - N/A Rain Light Rain
9:00 PM 57.2 °F 55.4 °F 94% 29.53 in 6.2 mi Calm Calm - N/A   Scattered Clouds
9:30 PM 57.2 °F 55.4 °F 94% 29.50 in 6.2 mi NW 3.5 mph - N/A   Scattered Clouds
10:00 PM 59.0 °F 55.4 °F 88% 29.53 in 6.2 mi West 3.5 mph - N/A Rain Light Rain
10:30 PM 59.0 °F 55.4 °F 88% 29.50 in 6.2 mi West 3.5 mph - N/A   Scattered Clouds
11:00 PM 57.2 °F 55.4 °F 94% 29.50 in 6.2 mi Variable 2.3 mph - N/A   Scattered Clouds
11:30 PM 57.2 °F 55.4 °F 94% 29.50 in 6.2 mi WSW 4.6 mph - N/A   Scattered Clouds